Tracking 17856 objects as of 28-September-2016
HD Live streaming from Space Station
objects crossing your sky now

GLOBALSTAR M006

Track GLOBALSTAR M006 now!
10-day predictions
GLOBALSTAR M006 is classified as:


NORAD ID: 25307
Int'l Code: 1998-023B
Perigee: 1,879.7 km
Apogee: 1,880.9 km
Inclination: 52.0 °
Period: 124.3 minutes
Semi major axis: 8251 km
RCS: 2.7065 m2 (large)
Launch date: April 24, 1998
Source: Globalstar (GLOB)
Launch site: AIR FORCE EASTERN TEST RANGE (AFETR)
Your satellite tracking list
Your tracking list is empty





NASA's NSSDC Master Catalog

Two Line Element Set (TLE):
1 25307U 98023B   16270.45713166 -.00000073  00000-0  53454-4 0  9994
2 25307  51.9924 231.1626 0000777  31.6778 122.1356 11.58294503847820
Source of the keplerian elements: AFSPC

N2YO: 421